Year,Month,Day,Hour,Minute,Value (Times are PST for temperature in C)
2018,01,26,00,00,2.80
2018,01,26,00,01,2.80
2018,01,26,00,02,2.80
2018,01,26,00,03,2.90
2018,01,26,00,04,2.90
2018,01,26,00,05,2.90
2018,01,26,00,06,2.90
2018,01,26,00,07,2.90
2018,01,26,00,08,2.90
2018,01,26,00,09,2.90
2018,01,26,00,10,2.90
2018,01,26,00,11,2.90
2018,01,26,00,12,2.90
2018,01,26,00,13,2.90
2018,01,26,00,14,2.90
2018,01,26,00,15,2.90
2018,01,26,00,16,3.00
2018,01,26,00,17,3.00
2018,01,26,00,18,3.00
2018,01,26,00,19,3.10
2018,01,26,00,20,3.10
2018,01,26,00,21,3.10
2018,01,26,00,22,3.10
2018,01,26,00,23,3.10
2018,01,26,00,24,3.10
2018,01,26,00,25,3.10
2018,01,26,00,26,3.10
2018,01,26,00,27,3.10
2018,01,26,00,28,3.10
2018,01,26,00,29,3.10
2018,01,26,00,30,3.10
2018,01,26,00,31,3.10
2018,01,26,00,32,3.00
2018,01,26,00,33,3.00
2018,01,26,00,34,3.10
2018,01,26,00,35,3.10
2018,01,26,00,36,3.10
2018,01,26,00,37,3.10
2018,01,26,00,38,3.00
2018,01,26,00,39,3.00
2018,01,26,00,40,3.00
2018,01,26,00,41,3.00
2018,01,26,00,42,3.00
2018,01,26,00,43,3.00
2018,01,26,00,44,3.00
2018,01,26,00,45,2.90
2018,01,26,00,46,2.90
2018,01,26,00,47,2.90
2018,01,26,00,48,2.90
2018,01,26,00,49,3.00
2018,01,26,00,50,3.00
2018,01,26,00,51,3.00
2018,01,26,00,52,3.00
2018,01,26,00,53,3.00
2018,01,26,00,54,3.00
2018,01,26,00,55,3.10
2018,01,26,00,56,3.20
2018,01,26,00,57,3.20
2018,01,26,00,58,3.30
2018,01,26,00,59,3.50
2018,01,26,01,00,3.60
2018,01,26,01,01,3.60
2018,01,26,01,02,3.70
2018,01,26,01,03,3.70
2018,01,26,01,04,3.70
2018,01,26,01,05,3.60
2018,01,26,01,06,3.60
2018,01,26,01,07,3.60
2018,01,26,01,08,3.60
2018,01,26,01,09,3.60
2018,01,26,01,10,3.60
2018,01,26,01,11,3.60
2018,01,26,01,12,3.60
2018,01,26,01,13,3.60
2018,01,26,01,14,3.60
2018,01,26,01,15,3.70
2018,01,26,01,16,3.70
2018,01,26,01,17,3.70
2018,01,26,01,18,3.70
2018,01,26,01,19,3.70
2018,01,26,01,20,3.60
2018,01,26,01,21,3.60
2018,01,26,01,22,3.60
2018,01,26,01,23,3.60
2018,01,26,01,24,3.50
2018,01,26,01,25,3.50
2018,01,26,01,26,3.50
2018,01,26,01,27,3.40
2018,01,26,01,28,3.40
2018,01,26,01,29,3.40
2018,01,26,01,30,3.30
2018,01,26,01,31,3.30
2018,01,26,01,32,3.30
2018,01,26,01,33,3.30
2018,01,26,01,34,3.30
2018,01,26,01,35,3.30
2018,01,26,01,36,3.30
2018,01,26,01,37,3.20
2018,01,26,01,38,3.20
2018,01,26,01,39,3.20
2018,01,26,01,40,3.20
2018,01,26,01,41,3.20
2018,01,26,01,42,3.20
2018,01,26,01,43,3.20
2018,01,26,01,44,3.20
2018,01,26,01,45,3.20
2018,01,26,01,46,3.20
2018,01,26,01,47,3.20
2018,01,26,01,48,3.20
2018,01,26,01,49,3.20
2018,01,26,01,50,3.20
2018,01,26,01,51,3.20
2018,01,26,01,52,3.30
2018,01,26,01,53,3.30
2018,01,26,01,54,3.30
2018,01,26,01,55,3.30
2018,01,26,01,56,3.30
2018,01,26,01,57,3.30
2018,01,26,01,58,3.30
2018,01,26,01,59,3.30
2018,01,26,02,00,3.30
2018,01,26,02,01,3.30
2018,01,26,02,02,3.30
2018,01,26,02,03,3.30
2018,01,26,02,04,3.30
2018,01,26,02,05,3.40
2018,01,26,02,06,3.40
2018,01,26,02,07,3.40
2018,01,26,02,08,3.40
2018,01,26,02,09,3.40
2018,01,26,02,10,3.40
2018,01,26,02,11,3.50
2018,01,26,02,12,3.50
2018,01,26,02,13,3.60
2018,01,26,02,14,3.60
2018,01,26,02,15,3.60
2018,01,26,02,16,3.60
2018,01,26,02,17,3.60
2018,01,26,02,18,3.60
2018,01,26,02,19,3.60
2018,01,26,02,20,3.60
2018,01,26,02,21,3.60
2018,01,26,02,22,3.60
2018,01,26,02,23,3.60
2018,01,26,02,24,3.60
2018,01,26,02,25,3.60
2018,01,26,02,26,3.60
2018,01,26,02,27,3.70
2018,01,26,02,28,3.70
2018,01,26,02,29,3.70
2018,01,26,02,30,3.70
2018,01,26,02,31,3.70
2018,01,26,02,32,3.70
2018,01,26,02,33,3.70
2018,01,26,02,34,3.70
2018,01,26,02,35,3.70
2018,01,26,02,36,3.70
2018,01,26,02,37,3.70
2018,01,26,02,38,3.70
2018,01,26,02,39,3.70
2018,01,26,02,40,3.70
2018,01,26,02,41,3.70
2018,01,26,02,42,3.70
2018,01,26,02,43,3.70
2018,01,26,02,44,3.70
2018,01,26,02,45,3.70
2018,01,26,02,46,3.70
2018,01,26,02,47,3.70
2018,01,26,02,48,3.70
2018,01,26,02,49,3.80
2018,01,26,02,50,3.80
2018,01,26,02,51,3.80
2018,01,26,02,52,3.80
2018,01,26,02,53,3.80
2018,01,26,02,54,3.70
2018,01,26,02,55,3.70
2018,01,26,02,56,3.70
2018,01,26,02,57,3.70
2018,01,26,02,58,3.60
2018,01,26,02,59,3.60
2018,01,26,03,00,3.60
2018,01,26,03,01,3.60
2018,01,26,03,02,3.60
2018,01,26,03,03,3.60
2018,01,26,03,04,3.60
2018,01,26,03,05,3.60
2018,01,26,03,06,3.60
2018,01,26,03,07,3.60
2018,01,26,03,08,3.60
2018,01,26,03,09,3.60
2018,01,26,03,10,3.60
2018,01,26,03,11,3.60
2018,01,26,03,12,3.60
2018,01,26,03,13,3.60
2018,01,26,03,14,3.60
2018,01,26,03,15,3.60
2018,01,26,03,16,3.60
2018,01,26,03,17,3.70
2018,01,26,03,18,3.80
2018,01,26,03,19,4.00
2018,01,26,03,20,4.10
2018,01,26,03,21,4.30
2018,01,26,03,22,4.40
2018,01,26,03,23,4.50
2018,01,26,03,24,4.60
2018,01,26,03,25,4.70
2018,01,26,03,26,4.80
2018,01,26,03,27,4.80
2018,01,26,03,28,4.90
2018,01,26,03,29,5.00
2018,01,26,03,30,5.00
2018,01,26,03,31,5.10
2018,01,26,03,32,5.10
2018,01,26,03,33,5.10
2018,01,26,03,34,5.20
2018,01,26,03,35,5.20
2018,01,26,03,36,5.20
2018,01,26,03,37,5.20
2018,01,26,03,38,5.20
2018,01,26,03,39,5.20
2018,01,26,03,40,5.20
2018,01,26,03,41,5.20
2018,01,26,03,42,5.30
2018,01,26,03,43,5.30
2018,01,26,03,44,5.30
2018,01,26,03,45,5.30
2018,01,26,03,46,5.30
2018,01,26,03,47,5.30
2018,01,26,03,48,5.30
2018,01,26,03,49,5.20
2018,01,26,03,50,5.20
2018,01,26,03,51,5.20
2018,01,26,03,52,5.10
2018,01,26,03,53,5.10
2018,01,26,03,54,5.00
2018,01,26,03,55,5.00
2018,01,26,03,56,5.00
2018,01,26,03,57,5.00
2018,01,26,03,58,5.00
2018,01,26,03,59,4.90
2018,01,26,04,00,4.90
2018,01,26,04,01,4.90
2018,01,26,04,02,4.80
2018,01,26,04,03,4.80
2018,01,26,04,04,4.70
2018,01,26,04,05,4.70
2018,01,26,04,06,4.70
2018,01,26,04,07,4.60
2018,01,26,04,08,4.60
2018,01,26,04,09,4.60
2018,01,26,04,10,4.60
2018,01,26,04,11,4.60
2018,01,26,04,12,4.60
2018,01,26,04,13,4.60
2018,01,26,04,14,4.60
2018,01,26,04,15,4.50
2018,01,26,04,16,4.50
2018,01,26,04,17,4.50
2018,01,26,04,18,4.50
2018,01,26,04,19,4.50
2018,01,26,04,20,4.50
2018,01,26,04,21,4.60
2018,01,26,04,22,4.60
2018,01,26,04,23,4.60
2018,01,26,04,24,4.60
2018,01,26,04,25,4.60
2018,01,26,04,26,4.60
2018,01,26,04,27,4.60
2018,01,26,04,28,4.70
2018,01,26,04,29,4.70
2018,01,26,04,30,4.70
2018,01,26,04,31,4.70
2018,01,26,04,32,4.70
2018,01,26,04,33,4.70
2018,01,26,04,34,4.70
2018,01,26,04,35,4.70
2018,01,26,04,36,4.70
2018,01,26,04,37,4.70
2018,01,26,04,38,4.70
2018,01,26,04,39,4.70
2018,01,26,04,40,4.80
2018,01,26,04,41,4.80
2018,01,26,04,42,4.80
2018,01,26,04,43,4.80
2018,01,26,04,44,4.80
2018,01,26,04,45,4.80
2018,01,26,04,46,4.80
2018,01,26,04,47,4.80
2018,01,26,04,48,4.80
2018,01,26,04,49,4.80
2018,01,26,04,50,4.80
2018,01,26,04,51,4.90
2018,01,26,04,52,4.90
2018,01,26,04,53,4.90
2018,01,26,04,54,4.90
2018,01,26,04,55,4.90
2018,01,26,04,56,4.90
2018,01,26,04,57,4.80
2018,01,26,04,58,4.70
2018,01,26,04,59,4.60
2018,01,26,05,00,4.40
2018,01,26,05,01,4.30
2018,01,26,05,02,4.20
2018,01,26,05,03,4.10
2018,01,26,05,04,4.00
2018,01,26,05,05,4.00
2018,01,26,05,06,3.90
2018,01,26,05,07,3.80
2018,01,26,05,08,3.80
2018,01,26,05,09,3.80
2018,01,26,05,10,3.80
2018,01,26,05,11,3.70
2018,01,26,05,12,3.70
2018,01,26,05,13,3.70
2018,01,26,05,14,3.70
2018,01,26,05,15,3.70
2018,01,26,05,16,3.70
2018,01,26,05,17,3.70
2018,01,26,05,18,3.70
2018,01,26,05,19,3.70
2018,01,26,05,20,3.70
2018,01,26,05,21,3.60
2018,01,26,05,22,3.60
2018,01,26,05,23,3.60
2018,01,26,05,24,3.60
2018,01,26,05,25,3.60
2018,01,26,05,26,3.50
2018,01,26,05,27,3.50
2018,01,26,05,28,3.50
2018,01,26,05,29,3.50
2018,01,26,05,30,3.50
2018,01,26,05,31,3.50
2018,01,26,05,32,3.50
2018,01,26,05,33,3.50
2018,01,26,05,34,3.40
2018,01,26,05,35,3.40
2018,01,26,05,36,3.40
2018,01,26,05,37,3.40
2018,01,26,05,38,3.40
2018,01,26,05,39,3.40
2018,01,26,05,40,3.40
2018,01,26,05,41,3.40
2018,01,26,05,42,3.40
2018,01,26,05,43,3.40
2018,01,26,05,44,3.40
2018,01,26,05,45,3.40
2018,01,26,05,46,3.40
2018,01,26,05,47,3.40
2018,01,26,05,48,3.40
2018,01,26,05,49,3.40
2018,01,26,05,50,3.40
2018,01,26,08,58,3.10
2018,01,26,08,59,3.10
2018,01,26,09,00,3.10
2018,01,26,09,01,3.10
2018,01,26,09,02,3.10
2018,01,26,09,03,3.10
2018,01,26,09,04,3.10
2018,01,26,09,05,3.10
2018,01,26,09,06,3.10
2018,01,26,09,07,3.10
2018,01,26,09,08,3.20
2018,01,26,09,09,3.20
2018,01,26,09,10,3.20
2018,01,26,09,11,3.20
2018,01,26,09,12,3.20
2018,01,26,09,13,3.20
2018,01,26,09,14,3.20
2018,01,26,09,15,3.20
2018,01,26,09,16,3.20
2018,01,26,09,17,3.20
2018,01,26,09,18,3.20
2018,01,26,09,19,3.20
2018,01,26,09,20,3.20
2018,01,26,09,21,3.20
2018,01,26,09,22,3.20
2018,01,26,09,23,3.20
2018,01,26,09,24,3.20
2018,01,26,09,25,3.20
2018,01,26,09,26,3.20
2018,01,26,09,27,3.20
2018,01,26,09,28,3.20
2018,01,26,09,29,3.30
2018,01,26,09,30,3.30
2018,01,26,09,31,3.30
2018,01,26,09,32,3.30
2018,01,26,09,33,3.30
2018,01,26,09,34,3.30
2018,01,26,09,35,3.30
2018,01,26,09,36,3.30
2018,01,26,09,37,3.40
2018,01,26,09,38,3.40
2018,01,26,09,39,3.50
2018,01,26,09,40,3.50
2018,01,26,09,41,3.50
2018,01,26,09,42,3.60
2018,01,26,09,43,3.60
2018,01,26,09,44,3.70
2018,01,26,09,45,3.70
2018,01,26,09,46,3.70
2018,01,26,09,47,3.70
2018,01,26,09,48,3.70
2018,01,26,09,49,3.70
2018,01,26,09,50,3.70
2018,01,26,09,51,3.80
2018,01,26,09,52,3.80
2018,01,26,09,53,3.80
2018,01,26,09,54,3.80
2018,01,26,09,55,3.90
2018,01,26,09,56,4.00
2018,01,26,09,57,4.10
2018,01,26,09,58,4.10
2018,01,26,09,59,4.10
2018,01,26,10,00,4.20
2018,01,26,10,01,4.20
2018,01,26,10,02,4.20
2018,01,26,10,03,4.30
2018,01,26,10,04,4.30
2018,01,26,10,05,4.30
2018,01,26,10,06,4.30
2018,01,26,10,07,4.30
2018,01,26,10,08,4.30
2018,01,26,10,09,4.30
2018,01,26,10,10,4.40
2018,01,26,10,11,4.40
2018,01,26,10,12,4.40
2018,01,26,10,13,4.50
2018,01,26,10,14,4.40
2018,01,26,10,15,4.40
2018,01,26,10,16,4.40
2018,01,26,10,17,4.40
2018,01,26,10,18,4.30
2018,01,26,10,19,4.30
2018,01,26,10,20,4.30
2018,01,26,10,21,4.30
2018,01,26,10,22,4.30
2018,01,26,10,23,4.30
2018,01,26,10,24,4.30
2018,01,26,10,25,4.40
2018,01,26,10,26,4.40
2018,01,26,10,27,4.50
2018,01,26,10,28,4.60
2018,01,26,10,29,4.70
2018,01,26,10,30,4.70
2018,01,26,10,31,4.80
2018,01,26,10,32,4.80
2018,01,26,10,33,4.80
2018,01,26,10,34,4.90
2018,01,26,10,35,5.00
2018,01,26,10,36,5.00
2018,01,26,10,37,5.10
2018,01,26,10,38,5.10
2018,01,26,10,39,5.10
2018,01,26,10,40,5.20
2018,01,26,10,41,5.20
2018,01,26,10,42,5.20
2018,01,26,10,43,5.20
2018,01,26,10,44,5.20
2018,01,26,10,45,5.20
2018,01,26,10,46,5.20
2018,01,26,10,47,5.20
2018,01,26,10,48,5.20
2018,01,26,10,49,5.20
2018,01,26,10,50,5.20
2018,01,26,10,51,5.20
2018,01,26,10,52,5.10
2018,01,26,10,53,5.10
2018,01,26,10,54,5.10
2018,01,26,10,55,5.20
2018,01,26,10,56,5.20
2018,01,26,10,57,5.20
2018,01,26,10,58,5.20
2018,01,26,10,59,5.20
2018,01,26,11,00,5.20
2018,01,26,11,01,5.20
2018,01,26,11,02,5.10
2018,01,26,11,03,5.10
2018,01,26,11,04,5.20
2018,01,26,11,05,5.20
2018,01,26,11,06,5.20
2018,01,26,11,07,5.20
2018,01,26,11,08,5.20
2018,01,26,11,09,5.30
2018,01,26,11,10,5.30
2018,01,26,11,11,5.30
2018,01,26,11,12,5.30
2018,01,26,11,13,5.30
2018,01,26,11,14,5.30
2018,01,26,11,15,5.30
2018,01,26,11,16,5.30
2018,01,26,11,17,5.30
2018,01,26,11,18,5.20
2018,01,26,11,19,5.20
2018,01,26,11,20,5.20
2018,01,26,11,21,5.20
2018,01,26,11,22,5.20
2018,01,26,11,23,5.20
2018,01,26,11,24,5.20
2018,01,26,11,25,5.20
2018,01,26,11,26,5.20
2018,01,26,11,27,5.30
2018,01,26,11,28,5.30
2018,01,26,11,29,5.30
2018,01,26,11,30,5.30
2018,01,26,11,31,5.30
2018,01,26,11,32,5.30
2018,01,26,11,33,5.30
2018,01,26,11,34,5.30
2018,01,26,11,35,5.30
2018,01,26,11,36,5.30
2018,01,26,11,37,5.30
2018,01,26,11,38,5.30
2018,01,26,11,39,5.20
2018,01,26,11,40,5.20
2018,01,26,11,41,5.20
2018,01,26,11,42,5.20
2018,01,26,11,43,5.30
2018,01,26,11,44,5.30
2018,01,26,11,45,5.30
2018,01,26,11,46,5.30
2018,01,26,11,47,5.30
2018,01,26,11,48,5.30
2018,01,26,11,49,5.30
2018,01,26,11,50,5.30
2018,01,26,11,51,5.30
2018,01,26,11,52,5.40
2018,01,26,11,53,5.40
2018,01,26,11,54,5.40
2018,01,26,11,55,5.40
2018,01,26,11,56,5.40
2018,01,26,11,57,5.30
2018,01,26,11,58,5.30
2018,01,26,11,59,5.30
2018,01,26,12,00,5.20
2018,01,26,12,01,5.20
2018,01,26,12,02,5.30
2018,01,26,12,03,5.30
2018,01,26,12,04,5.30
2018,01,26,12,05,5.30
2018,01,26,12,06,5.30
2018,01,26,12,07,5.30
2018,01,26,12,08,5.30
2018,01,26,12,09,5.30
2018,01,26,12,10,5.30
2018,01,26,12,11,5.30
2018,01,26,12,12,5.30
2018,01,26,12,13,5.30
2018,01,26,12,14,5.30
2018,01,26,12,15,5.30
2018,01,26,12,16,5.40
2018,01,26,12,17,5.40
2018,01,26,12,18,5.40
2018,01,26,12,19,5.40
2018,01,26,12,20,5.40
2018,01,26,12,21,5.30
2018,01,26,12,22,5.40
2018,01,26,12,23,5.40
2018,01,26,12,24,5.40
2018,01,26,12,25,5.40
2018,01,26,12,26,5.40
2018,01,26,12,27,5.40
2018,01,26,12,28,5.30
2018,01,26,12,29,5.30
2018,01,26,12,30,5.30
2018,01,26,12,31,5.30
2018,01,26,12,32,5.30
2018,01,26,12,33,5.30
2018,01,26,12,34,5.30
2018,01,26,12,35,5.30
2018,01,26,12,36,5.30
2018,01,26,12,37,5.30
2018,01,26,12,38,5.30
2018,01,26,12,39,5.30
2018,01,26,12,40,5.30
2018,01,26,12,41,5.30
2018,01,26,12,42,5.30
2018,01,26,12,43,5.20
2018,01,26,12,44,5.20
2018,01,26,12,45,5.20
2018,01,26,12,46,5.20
2018,01,26,12,47,5.30
2018,01,26,12,48,5.30
2018,01,26,12,49,5.30
2018,01,26,12,50,5.30
2018,01,26,12,51,5.30
2018,01,26,12,52,5.30
2018,01,26,12,53,5.30
2018,01,26,12,54,5.40
2018,01,26,12,55,5.40
2018,01,26,12,56,5.40
2018,01,26,12,57,5.40
2018,01,26,12,58,5.40
2018,01,26,12,59,5.40
2018,01,26,13,00,5.40
2018,01,26,13,01,5.50
2018,01,26,13,02,5.50
2018,01,26,13,03,5.50
2018,01,26,13,04,5.50
2018,01,26,13,05,5.50
2018,01,26,13,06,5.60
2018,01,26,13,07,5.60
2018,01,26,13,08,5.60
2018,01,26,13,09,5.60
2018,01,26,13,10,5.60
2018,01,26,13,11,5.60
2018,01,26,13,12,5.60
2018,01,26,13,13,5.60
2018,01,26,13,14,5.60
2018,01,26,13,15,5.60
2018,01,26,13,16,5.60
2018,01,26,13,17,5.60
2018,01,26,13,18,5.60
2018,01,26,13,19,5.70
2018,01,26,13,20,5.70
2018,01,26,13,21,5.60
2018,01,26,13,22,5.60
2018,01,26,13,23,5.60
2018,01,26,13,24,5.60
2018,01,26,13,25,5.60
2018,01,26,13,26,5.60
2018,01,26,13,27,5.60
2018,01,26,13,28,5.60
2018,01,26,13,29,5.60
2018,01,26,13,30,5.60
2018,01,26,13,31,5.70
2018,01,26,13,32,5.70
2018,01,26,13,33,5.70
2018,01,26,13,34,5.80
2018,01,26,13,35,5.80
2018,01,26,13,36,5.80
2018,01,26,13,37,5.80
2018,01,26,13,38,5.80
2018,01,26,13,39,5.80
2018,01,26,13,40,5.80
2018,01,26,13,41,5.80
2018,01,26,13,42,5.80
2018,01,26,13,43,5.70
2018,01,26,13,44,5.70
2018,01,26,13,45,5.70
2018,01,26,13,46,5.70
2018,01,26,13,47,5.70
2018,01,26,13,48,5.70
2018,01,26,13,49,5.70
2018,01,26,13,50,5.70
2018,01,26,13,51,5.70
2018,01,26,13,52,5.70
2018,01,26,13,53,5.70
2018,01,26,13,54,5.70
2018,01,26,13,55,5.80
2018,01,26,13,56,5.70
2018,01,26,13,57,5.70
2018,01,26,13,58,5.70
2018,01,26,13,59,5.70
2018,01,26,14,00,5.70
2018,01,26,14,01,5.60
2018,01,26,14,02,5.60
2018,01,26,14,03,5.60
2018,01,26,14,04,5.50
2018,01,26,14,05,5.50
2018,01,26,14,06,5.50
2018,01,26,14,07,5.40
2018,01,26,14,08,5.40
2018,01,26,14,09,5.40
2018,01,26,14,10,5.40
2018,01,26,14,11,5.30
2018,01,26,14,12,5.30
2018,01,26,14,13,5.30
2018,01,26,14,14,5.30
2018,01,26,14,15,5.30
2018,01,26,14,16,5.20
2018,01,26,14,17,5.20
2018,01,26,14,18,5.20
2018,01,26,14,19,5.10
2018,01,26,14,20,5.20
2018,01,26,14,21,5.20
2018,01,26,14,22,5.20
2018,01,26,14,23,5.20
2018,01,26,14,24,5.20
2018,01,26,14,25,5.20
2018,01,26,14,26,5.20
2018,01,26,14,27,5.20
2018,01,26,14,28,5.20
2018,01,26,14,29,5.20
2018,01,26,14,30,5.20
2018,01,26,14,31,5.20
2018,01,26,14,32,5.20
2018,01,26,14,33,5.20
2018,01,26,14,34,5.20
2018,01,26,14,35,5.20
2018,01,26,14,36,5.20
2018,01,26,14,37,5.20
2018,01,26,14,38,5.20
2018,01,26,14,39,5.20
2018,01,26,14,40,5.20
2018,01,26,14,41,5.30
2018,01,26,14,42,5.30
2018,01,26,14,43,5.30
2018,01,26,14,44,5.30
2018,01,26,14,45,5.30
2018,01,26,14,46,5.30
2018,01,26,14,47,5.30
2018,01,26,14,48,5.30
2018,01,26,14,49,5.20
2018,01,26,14,50,5.20
2018,01,26,14,51,5.20
2018,01,26,14,52,5.20
2018,01,26,14,53,5.20
2018,01,26,14,54,5.20
2018,01,26,14,55,5.20
2018,01,26,14,56,5.20
2018,01,26,14,57,5.20
2018,01,26,14,58,5.20
2018,01,26,14,59,5.20
2018,01,26,15,00,5.20
2018,01,26,15,01,5.20
2018,01,26,15,02,5.20
2018,01,26,15,03,5.20
2018,01,26,15,04,5.10
2018,01,26,15,05,5.10
2018,01,26,15,06,5.10
2018,01,26,15,07,5.00
2018,01,26,15,08,4.90
2018,01,26,15,09,4.90
2018,01,26,15,10,4.80
2018,01,26,15,11,4.70
2018,01,26,15,12,4.70
2018,01,26,15,13,4.60
2018,01,26,15,14,4.60
2018,01,26,15,15,4.60
2018,01,26,15,16,4.60
2018,01,26,15,17,4.60
2018,01,26,15,18,4.60
2018,01,26,15,19,4.60
2018,01,26,15,20,4.50
2018,01,26,15,21,4.50
2018,01,26,15,22,4.50
2018,01,26,15,23,4.50
2018,01,26,15,24,4.50
2018,01,26,15,25,4.50
2018,01,26,15,26,4.50
2018,01,26,15,27,4.50
2018,01,26,15,28,4.50
2018,01,26,15,29,4.50
2018,01,26,15,30,4.50
2018,01,26,15,31,4.40
2018,01,26,15,32,4.40
2018,01,26,15,33,4.40
2018,01,26,15,34,4.40
2018,01,26,15,35,4.50
2018,01,26,15,36,4.50
2018,01,26,15,37,4.50
2018,01,26,15,38,4.60
2018,01,26,15,39,4.60
2018,01,26,15,40,4.60
2018,01,26,15,41,4.60
2018,01,26,15,42,4.70
2018,01,26,15,43,4.70
2018,01,26,15,44,4.70
2018,01,26,15,45,4.70
2018,01,26,15,46,4.70
2018,01,26,15,47,4.70
2018,01,26,15,48,4.70
2018,01,26,15,49,4.70
2018,01,26,15,50,4.70
2018,01,26,15,51,4.80
2018,01,26,15,52,4.80
2018,01,26,15,53,4.80
2018,01,26,15,54,4.80
2018,01,26,15,55,4.80
2018,01,26,15,56,4.80
2018,01,26,15,57,4.90
2018,01,26,15,58,4.90
2018,01,26,15,59,4.90
2018,01,26,16,00,4.90
2018,01,26,16,01,4.90
2018,01,26,16,02,4.90
2018,01,26,16,03,4.90
2018,01,26,16,04,4.90
2018,01,26,16,05,4.90
2018,01,26,16,06,4.90
2018,01,26,16,07,4.90
2018,01,26,16,08,4.90
2018,01,26,16,09,5.00
2018,01,26,16,10,5.00
2018,01,26,16,11,5.00
2018,01,26,16,12,5.00
2018,01,26,16,13,5.00
2018,01,26,16,14,5.00
2018,01,26,16,15,5.10
2018,01,26,16,16,5.10
2018,01,26,16,17,5.10
2018,01,26,16,18,5.10
2018,01,26,16,19,5.10
2018,01,26,16,20,5.10
2018,01,26,16,21,5.10
2018,01,26,16,22,5.10
2018,01,26,16,23,5.10
2018,01,26,16,24,5.10
2018,01,26,16,25,5.00
2018,01,26,16,26,5.00
2018,01,26,16,27,5.00
2018,01,26,16,28,5.00
2018,01,26,16,29,5.00
2018,01,26,16,30,4.90
2018,01,26,16,31,4.90
2018,01,26,16,32,4.90
2018,01,26,16,33,4.90
2018,01,26,16,34,4.90
2018,01,26,16,35,4.90
2018,01,26,16,36,4.90
2018,01,26,16,37,4.90
2018,01,26,16,38,4.90
2018,01,26,16,39,4.90
2018,01,26,16,40,4.90
2018,01,26,16,41,4.90
2018,01,26,16,42,4.90
2018,01,26,16,43,4.90
2018,01,26,16,44,4.90
2018,01,26,16,45,4.90
2018,01,26,16,46,4.80
2018,01,26,16,47,4.90
2018,01,26,16,48,4.80
2018,01,26,16,49,4.80
2018,01,26,16,50,4.80
2018,01,26,16,51,4.80
2018,01,26,16,52,4.80
2018,01,26,16,53,4.80
2018,01,26,16,54,4.80
2018,01,26,16,55,4.80
2018,01,26,16,56,4.80
2018,01,26,16,57,4.80
2018,01,26,16,58,4.80
2018,01,26,16,59,4.80
2018,01,26,17,00,4.80
2018,01,26,17,01,4.80
2018,01,26,17,02,4.80
2018,01,26,17,03,4.80
2018,01,26,17,04,4.80
2018,01,26,17,05,4.80
2018,01,26,17,06,4.80
2018,01,26,17,07,4.80
2018,01,26,17,08,4.80
2018,01,26,17,09,4.80
2018,01,26,17,10,4.80
2018,01,26,17,11,4.80
2018,01,26,17,12,4.80
2018,01,26,17,13,4.80
2018,01,26,17,14,4.80
2018,01,26,17,15,4.80
2018,01,26,17,16,4.80
2018,01,26,17,17,4.80
2018,01,26,17,18,4.80
2018,01,26,17,19,4.80
2018,01,26,17,20,4.80
2018,01,26,17,21,4.70
2018,01,26,17,22,4.70
2018,01,26,17,23,4.70
2018,01,26,17,24,4.70
2018,01,26,17,25,4.70
2018,01,26,17,26,4.60
2018,01,26,17,27,4.60
2018,01,26,17,28,4.60
2018,01,26,17,29,4.60
2018,01,26,17,30,4.60
2018,01,26,17,31,4.60
2018,01,26,17,32,4.50
2018,01,26,17,33,4.50
2018,01,26,17,34,4.50
2018,01,26,17,35,4.50
2018,01,26,17,36,4.40
2018,01,26,17,37,4.40
2018,01,26,17,38,4.40
2018,01,26,17,39,4.40
2018,01,26,17,40,4.40
2018,01,26,17,41,4.40
2018,01,26,17,42,4.40
2018,01,26,17,43,4.40
2018,01,26,17,44,4.40
2018,01,26,17,45,4.40
2018,01,26,17,46,4.40
2018,01,26,17,47,4.40
2018,01,26,17,48,4.40
2018,01,26,17,49,4.40
2018,01,26,17,50,4.40
2018,01,26,17,51,4.40
2018,01,26,17,52,4.40
2018,01,26,17,53,4.40
2018,01,26,17,54,4.40
2018,01,26,17,55,4.40
2018,01,26,17,56,4.40
2018,01,26,17,57,4.40
2018,01,26,17,58,4.40
2018,01,26,17,59,4.40
2018,01,26,18,00,4.40
2018,01,26,18,01,4.40
2018,01,26,18,02,4.40
2018,01,26,18,03,4.40
2018,01,26,18,04,4.40
2018,01,26,18,05,4.40
2018,01,26,18,06,4.40
2018,01,26,18,07,4.40
2018,01,26,18,08,4.50
2018,01,26,18,09,4.50
2018,01,26,18,10,4.50
2018,01,26,18,11,4.50
2018,01,26,18,12,4.50
2018,01,26,18,13,4.50
2018,01,26,18,14,4.50
2018,01,26,18,15,4.50
2018,01,26,18,16,4.50
2018,01,26,18,17,4.50
2018,01,26,18,18,4.50
2018,01,26,18,19,4.50
2018,01,26,18,20,4.50
2018,01,26,18,21,4.50
2018,01,26,18,22,4.50
2018,01,26,18,23,4.50
2018,01,26,18,24,4.50
2018,01,26,18,25,4.50
2018,01,26,18,26,4.40
2018,01,26,18,27,4.40
2018,01,26,18,28,4.40
2018,01,26,18,29,4.40
2018,01,26,18,30,4.40
2018,01,26,18,31,4.40
2018,01,26,18,32,4.40
2018,01,26,18,33,4.30
2018,01,26,18,34,4.30
2018,01,26,18,35,4.30
2018,01,26,18,36,4.30
2018,01,26,18,37,4.30
2018,01,26,18,38,4.30
2018,01,26,18,39,4.30
2018,01,26,18,40,4.30
2018,01,26,18,41,4.30
2018,01,26,18,42,4.30
2018,01,26,18,43,4.20
2018,01,26,18,44,4.20
2018,01,26,18,45,4.20
2018,01,26,18,46,4.20
2018,01,26,18,47,4.20
2018,01,26,18,48,4.20
2018,01,26,18,49,4.10
2018,01,26,18,50,4.10
2018,01,26,18,51,4.10
2018,01,26,18,52,4.10
2018,01,26,18,53,4.00
2018,01,26,18,54,4.00
2018,01,26,18,55,4.00
2018,01,26,18,56,4.00
2018,01,26,18,57,3.90
2018,01,26,18,58,3.90
2018,01,26,18,59,3.90
2018,01,26,19,00,3.90
2018,01,26,19,01,3.80
2018,01,26,19,02,3.80
2018,01,26,19,03,3.80
2018,01,26,19,04,3.80
2018,01,26,19,05,3.80
2018,01,26,19,06,3.80
2018,01,26,19,07,3.80
2018,01,26,19,08,3.80
2018,01,26,19,09,3.80
2018,01,26,19,10,3.80
2018,01,26,19,11,3.70
2018,01,26,19,12,3.70
2018,01,26,19,13,3.70
2018,01,26,19,14,3.70
2018,01,26,19,15,3.70
2018,01,26,19,16,3.70
2018,01,26,19,17,3.70
2018,01,26,19,18,3.70
2018,01,26,19,19,3.70
2018,01,26,19,20,3.70
2018,01,26,19,21,3.60
2018,01,26,19,22,3.60
2018,01,26,19,23,3.60
2018,01,26,19,24,3.60
2018,01,26,19,25,3.60
2018,01,26,19,26,3.60
2018,01,26,19,27,3.60
2018,01,26,19,28,3.60
2018,01,26,19,29,3.60
2018,01,26,19,30,3.60
2018,01,26,19,31,3.60
2018,01,26,19,32,3.60
2018,01,26,19,33,3.60
2018,01,26,19,34,3.60
2018,01,26,19,35,3.60
2018,01,26,19,36,3.50
2018,01,26,19,37,3.50
2018,01,26,19,38,3.60
2018,01,26,19,39,3.50
2018,01,26,19,40,3.50
2018,01,26,19,41,3.50
2018,01,26,19,42,3.50
2018,01,26,19,43,3.50
2018,01,26,19,44,3.50
2018,01,26,19,45,3.50
2018,01,26,19,46,3.50
2018,01,26,19,47,3.50
2018,01,26,19,48,3.50
2018,01,26,19,49,3.50
2018,01,26,19,50,3.50
2018,01,26,19,51,3.50
2018,01,26,19,52,3.50
2018,01,26,19,53,3.50
2018,01,26,19,54,3.40
2018,01,26,19,55,3.50
2018,01,26,19,56,3.40
2018,01,26,19,57,3.40
2018,01,26,19,58,3.40
2018,01,26,19,59,3.40
2018,01,26,20,00,3.40
2018,01,26,20,01,3.40
2018,01,26,20,02,3.40
2018,01,26,20,03,3.40
2018,01,26,20,04,3.40
2018,01,26,20,05,3.40
2018,01,26,20,06,3.40
2018,01,26,20,07,3.40
2018,01,26,20,08,3.40
2018,01,26,20,09,3.40
2018,01,26,20,10,3.40
2018,01,26,20,11,3.40
2018,01,26,20,12,3.40
2018,01,26,20,13,3.40
2018,01,26,20,14,3.40
2018,01,26,20,15,3.40
2018,01,26,20,16,3.40
2018,01,26,20,17,3.40
2018,01,26,20,18,3.40
2018,01,26,20,19,3.40
2018,01,26,20,20,3.40
2018,01,26,20,21,3.40
2018,01,26,20,22,3.40
2018,01,26,20,23,3.40
2018,01,26,20,24,3.40
2018,01,26,20,25,3.40
2018,01,26,20,26,3.40
2018,01,26,20,27,3.40
2018,01,26,20,28,3.40
2018,01,26,20,29,3.40
2018,01,26,20,30,3.40
2018,01,26,20,31,3.40
2018,01,26,20,32,3.50
2018,01,26,20,33,3.50
2018,01,26,20,34,3.50
2018,01,26,20,35,3.50
2018,01,26,20,36,3.50
2018,01,26,20,37,3.50
2018,01,26,20,38,3.50
2018,01,26,20,39,3.50
2018,01,26,20,40,3.50
2018,01,26,20,41,3.50
2018,01,26,20,42,3.50
2018,01,26,20,43,3.50
2018,01,26,20,44,3.50
2018,01,26,20,45,3.50
2018,01,26,20,46,3.50
2018,01,26,20,47,3.50
2018,01,26,20,48,3.50
2018,01,26,20,49,3.60
2018,01,26,20,50,3.60
2018,01,26,20,51,3.60
2018,01,26,20,52,3.60
2018,01,26,20,53,3.60
2018,01,26,20,54,3.60
2018,01,26,20,55,3.60
2018,01,26,20,56,3.70
2018,01,26,20,57,3.70
2018,01,26,20,58,3.70
2018,01,26,20,59,3.70
2018,01,26,21,00,3.70
2018,01,26,21,01,3.70
2018,01,26,21,02,3.70
2018,01,26,21,03,3.70
2018,01,26,21,04,3.70
2018,01,26,21,05,3.70
2018,01,26,21,06,3.70
2018,01,26,21,07,3.70
2018,01,26,21,08,3.80
2018,01,26,21,09,3.80
2018,01,26,21,10,3.80
2018,01,26,21,11,3.80
2018,01,26,21,12,3.80
2018,01,26,21,13,3.90